Location: Unspecified
(45.6669°N, 0.0000°E)
Time: 02:56:07
(UTC+00:00)

ISS - Pass Details

Date: 21 May 2019
Orbit: 408 x 418 km, 51.6° (Epoch: 16 June)

Event Time Altitude Azimuth Distance (km) Brightness Sun altitude
Rises 01:27:19 0° 298° (WNW) 2,369 0.1 -21.1°
Reaches altitude 10° 01:29:26 10° 299° (WNW) 1,504 -0.9 -20.9°
Enters shadow 01:30:55 24° 300° (WNW) 915 -2.0 -20.8°
